Вернуться в каталог

STARLINK-37919

АктивенСвязьVLEO
NORAD 69957·PAYLOAD·🇺🇸 United States

Запущен Jul 9, 2026 с Cape Canaveral Space Force Station

Loading…

Ближайшие Пролёты (ближайшие 24 часа)

TLE

СвежийSource: CelesTrak SupGP

Эпоха: Sep 14, 2026, 16:05 UTC

1 69957C 26157Q   26257.67062500  .00007885  00000+0  23301-3 0  2571
2 69957  53.1592   1.2579 0001304  76.4833 298.5488 15.34379228    15

Отслеживайте STARLINK-37919 в реальном времени с AllMySat

Download on the App Store